Previsão horária em Allieres

Hoje, 27 Janeiro, Quarta-feira

Tempo Temperatura Precipitação Vento Pressão Humidade
00:00 -8°C° 0 mm 1 m/s 640 mmHg 73%
01:00 -7°C° 0 mm 1 m/s 639 mmHg 71%
02:00 -7°C° 0 mm 1 m/s 639 mmHg 69%
03:00 -7°C° 0 mm 1 m/s 639 mmHg 67%
04:00 -6°C° 0.1 mm 1 m/s 639 mmHg 68%
05:00 -6°C° 0.1 mm 1 m/s 639 mmHg 68%
06:00 -5°C° 0 mm 0 m/s 639 mmHg 74%
07:00 -3°C° 0.1 mm 1 m/s 639 mmHg 76%
08:00 -2°C° 0.1 mm 1 m/s 639 mmHg 78%
09:00 -2°C° 0.1 mm 1 m/s 640 mmHg 81%
10:00 -1°C° 0.3 mm 1 m/s 639 mmHg 84%
11:00 -1°C° 0.3 mm 1 m/s 639 mmHg 87%
12:00 -1°C° 0 mm 1 m/s 640 mmHg 87%
13:00 -1°C° 0.6 mm 1 m/s 639 mmHg 89%
14:00 0°C° 0.6 mm 1 m/s 639 mmHg 91%
15:00 0°C° 0.6 mm 1 m/s 639 mmHg 93%
16:00 0°C° 0.9 mm 1 m/s 639 mmHg 94%
17:00 0°C° 0.9 mm 1 m/s 640 mmHg 95%
18:00 0°C° 0.9 mm 1 m/s 640 mmHg 96%
19:00 0°C° 1.2 mm 1 m/s 640 mmHg 97%
20:00 0°C° 1.2 mm 1 m/s 640 mmHg 97%
21:00 0°C° 1.2 mm 1 m/s 640 mmHg 98%
22:00 0°C° 1.4 mm 1 m/s 640 mmHg 98%
23:00 0°C° 1.4 mm 1 m/s 640 mmHg 98%

Amanhã, 28 Janeiro, Quinta-feira

Tempo Temperatura Precipitação Vento Pressão Humidade
00:00 +1°C° 1.4 mm 1 m/s 640 mmHg 98%
01:00 +1°C° 1.1 mm 1 m/s 640 mmHg 98%
02:00 +1°C° 1.1 mm 1 m/s 640 mmHg 98%
03:00 +1°C° 1.1 mm 1 m/s 639 mmHg 98%
04:00 +1°C° 0.8 mm 1 m/s 639 mmHg 97%
05:00 +1°C° 0.8 mm 1 m/s 640 mmHg 97%
06:00 +1°C° 0.8 mm 1 m/s 640 mmHg 97%
07:00 +2°C° 0.5 mm 1 m/s 640 mmHg 97%
08:00 +2°C° 0.5 mm 1 m/s 640 mmHg 97%
09:00 +2°C° 0.5 mm 1 m/s 640 mmHg 96%
10:00 +3°C° 0.7 mm 1 m/s 640 mmHg 96%
11:00 +3°C° 0.7 mm 1 m/s 640 mmHg 95%
12:00 +3°C° 0.7 mm 1 m/s 640 mmHg 94%
13:00 +3°C° 1.7 mm 1 m/s 639 mmHg 95%
14:00 +3°C° 1.7 mm 1 m/s 639 mmHg 96%
15:00 +2°C° 1.7 mm 1 m/s 639 mmHg 97%
16:00 +3°C° 1.5 mm 1 m/s 639 mmHg 97%
17:00 +3°C° 1.5 mm 1 m/s 639 mmHg 97%
18:00 +3°C° 1.5 mm 1 m/s 639 mmHg 97%
19:00 +3°C° 0.1 mm 1 m/s 639 mmHg 96%
20:00 +2°C° 0.1 mm 1 m/s 639 mmHg 95%
21:00 +2°C° 0.1 mm 1 m/s 639 mmHg 94%
22:00 +2°C° 0.9 mm 1 m/s 639 mmHg 95%
23:00 +2°C° 0.9 mm 1 m/s 639 mmHg 95%

Depois de amanhã, 29 Janeiro, Sexta-feira

Tempo Temperatura Precipitação Vento Pressão Humidade
00:00 +1°C° 0.9 mm 2 m/s 639 mmHg 96%
01:00 +1°C° 1.4 mm 2 m/s 638 mmHg 96%
02:00 +1°C° 1.4 mm 2 m/s 637 mmHg 96%
03:00 +1°C° 1.4 mm 2 m/s 636 mmHg 96%
04:00 +2°C° 2 mm 2 m/s 636 mmHg 96%
05:00 +2°C° 2 mm 2 m/s 636 mmHg 97%
06:00 +2°C° 2 mm 2 m/s 635 mmHg 97%
07:00 +2°C° 1.9 mm 2 m/s 636 mmHg 97%
08:00 +3°C° 1.9 mm 1 m/s 636 mmHg 96%
09:00 +3°C° 1.9 mm 1 m/s 636 mmHg 96%
10:00 +2°C° 0.8 mm 2 m/s 637 mmHg 93%
11:00 +3°C° 0.8 mm 2 m/s 637 mmHg 89%
12:00 +3°C° 0.8 mm 2 m/s 637 mmHg 86%
13:00 +3°C° 0.4 mm 2 m/s 637 mmHg 86%
14:00 +3°C° 0.4 mm 2 m/s 637 mmHg 87%
15:00 +3°C° 0.4 mm 1 m/s 636 mmHg 87%
16:00 +3°C° 0.4 mm 1 m/s 636 mmHg 88%
17:00 +2°C° 0.4 mm 1 m/s 636 mmHg 89%
18:00 +1°C° 0.4 mm 1 m/s 636 mmHg 90%
19:00 +1°C° 0.4 mm 1 m/s 637 mmHg 91%
20:00 +1°C° 0.4 mm 1 m/s 637 mmHg 91%
21:00 +1°C° 0.4 mm 1 m/s 637 mmHg 92%
22:00 0°C° 0.2 mm 1 m/s 637 mmHg 91%
23:00 0°C° 0.2 mm 1 m/s 637 mmHg 91%

30 Janeiro, Sábado

Tempo Temperatura Precipitação Vento Pressão Humidade
00:00 -1°C° 0.2 mm 1 m/s 637 mmHg 90%
01:00 -1°C° 0 mm 1 m/s 636 mmHg 89%
02:00 -2°C° 0 mm 1 m/s 635 mmHg 87%
03:00 -2°C° 0 mm 1 m/s 634 mmHg 85%
04:00 -1°C° 0 mm 1 m/s 633 mmHg 82%
05:00 -1°C° 0 mm 1 m/s 633 mmHg 79%
06:00 -2°C° 0 mm 2 m/s 632 mmHg 76%
07:00 -2°C° 0.3 mm 2 m/s 632 mmHg 80%
08:00 -1°C° 0.3 mm 2 m/s 631 mmHg 83%
09:00 -1°C° 0.3 mm 2 m/s 631 mmHg 87%
10:00 +1°C° 1.9 mm 1 m/s 630 mmHg 90%
11:00 +1°C° 1.9 mm 1 m/s 630 mmHg 93%
12:00 +1°C° 1.9 mm 1 m/s 629 mmHg 96%
13:00 +1°C° 2 mm 1 m/s 629 mmHg 96%
14:00 +1°C° 2 mm 1 m/s 629 mmHg 96%
15:00 +1°C° 2 mm 1 m/s 629 mmHg 96%
16:00 +1°C° 0.9 mm 1 m/s 629 mmHg 96%
17:00 +1°C° 0.9 mm 1 m/s 629 mmHg 96%
18:00 0°C° 0.9 mm 1 m/s 629 mmHg 96%
19:00 0°C° 1.2 mm 1 m/s 629 mmHg 97%
20:00 0°C° 1.2 mm 1 m/s 629 mmHg 97%
21:00 -2°C° 1.2 mm 2 m/s 629 mmHg 97%
22:00 0°C° 1.1 mm 1 m/s 629 mmHg 96%
23:00 0°C° 1.1 mm 1 m/s 629 mmHg 96%

31 Janeiro, Domingo

Tempo Temperatura Precipitação Vento Pressão Humidade
00:00 -1°C° 1.1 mm 1 m/s 629 mmHg 95%
01:00 -1°C° 0.1 mm 1 m/s 629 mmHg 96%
02:00 -1°C° 0.1 mm 1 m/s 628 mmHg 96%
03:00 -1°C° 0.1 mm 1 m/s 628 mmHg 96%
04:00 -1°C° 0.3 mm 1 m/s 628 mmHg 95%
05:00 -2°C° 0.3 mm 1 m/s 628 mmHg 94%
06:00 -2°C° 0.3 mm 1 m/s 628 mmHg 93%
07:00 -1°C° 1.1 mm 1 m/s 628 mmHg 94%
08:00 -1°C° 1.1 mm 1 m/s 628 mmHg 95%
09:00 -1°C° 1.1 mm 1 m/s 628 mmHg 96%
10:00 0°C° 0.9 mm 1 m/s 629 mmHg 96%
11:00 0°C° 0.9 mm 1 m/s 629 mmHg 97%
12:00 0°C° 0.9 mm 1 m/s 629 mmHg 97%
13:00 0°C° 0.6 mm 1 m/s 630 mmHg 97%
14:00 +1°C° 0.6 mm 1 m/s 630 mmHg 97%
15:00 +1°C° 0.6 mm 1 m/s 630 mmHg 98%
16:00 +1°C° 0.4 mm 1 m/s 630 mmHg 97%
17:00 +1°C° 0.4 mm 1 m/s 630 mmHg 97%
18:00 +1°C° 0.4 mm 1 m/s 630 mmHg 96%
19:00 +1°C° 0.9 mm 1 m/s 630 mmHg 96%
20:00 -2°C° 0.9 mm 2 m/s 629 mmHg 96%
21:00 -2°C° 0.9 mm 2 m/s 629 mmHg 95%
22:00 -2°C° 2.6 mm 2 m/s 629 mmHg 96%
23:00 -2°C° 2.6 mm 2 m/s 628 mmHg 96%

1 Fevereiro, Segunda-feira

Tempo Temperatura Precipitação Vento Pressão Humidade
00:00 -2°C° 2.6 mm 2 m/s 628 mmHg 97%
01:00 -2°C° 2.1 mm 2 m/s 628 mmHg 97%
02:00 +1°C° 2.1 mm 1 m/s 628 mmHg 97%
03:00 +1°C° 2.1 mm 1 m/s 628 mmHg 97%
04:00 +1°C° 2.8 mm 1 m/s 629 mmHg 97%
05:00 0°C° 2.8 mm 1 m/s 629 mmHg 97%
06:00 0°C° 2.8 mm 1 m/s 630 mmHg 97%
07:00 +1°C° 1.5 mm 1 m/s 631 mmHg 97%
08:00 +1°C° 1.5 mm 1 m/s 631 mmHg 96%
09:00 +1°C° 1.5 mm 1 m/s 632 mmHg 96%
10:00 +1°C° 2.4 mm 1 m/s 632 mmHg 97%
11:00 +1°C° 2.4 mm 1 m/s 633 mmHg 97%
12:00 +1°C° 2.4 mm 1 m/s 633 mmHg 98%
13:00 +1°C° 1.6 mm 1 m/s 634 mmHg 98%
14:00 +1°C° 1.6 mm 1 m/s 634 mmHg 97%
15:00 +1°C° 1.6 mm 1 m/s 634 mmHg 97%
16:00 +1°C° 0.5 mm 1 m/s 635 mmHg 97%
17:00 +1°C° 0.5 mm 1 m/s 636 mmHg 96%
18:00 +1°C° 0.5 mm 1 m/s 636 mmHg 96%
19:00 +1°C° 0.8 mm 1 m/s 637 mmHg 96%
20:00 +1°C° 0.8 mm 1 m/s 637 mmHg 96%
21:00 +1°C° 0.8 mm 1 m/s 637 mmHg 96%
22:00 +1°C° 0.7 mm 1 m/s 638 mmHg 96%
23:00 +1°C° 0.7 mm 1 m/s 638 mmHg 96%
Mostrar mais

Necessitamos do seu Consentimento

A Meteoprog e os seus Fornecedores de Serviços podem armazenar e aceder a dados pessoais como cookies, identificadores do dispositivo ou outras tecnologias semelhantes existentes no seu dispositivo e processar estes dados para personalizar conteúdos e anúncios, assim como funcionalidades nas redes sociais e análise de tráfego.

  • Armazenar e/ou aceder a informações no seu dispositivo

    Os cookies, identificadores do dispositivo ou outras informações podem ser armazenados ou acedidos no seu dispositivo, para os fins acima indicados.

  • Anúncios e conteúdos personalizados, medição de anúncios e conteúdos, dados sobre o público-alvo e desenvolvimento de produtos

    Os anúncios e os conteúdos podem ser personalizados com base num perfil. Podem ser adicionados dados adicionais para uma maior personalização dos anúncios e dos conteúdos. A eficácia dos anúncios e dos conteúdos pode ser medida. Podem ser obtidas informações sobre o público que visualizou os anúncios e os conteúdos. Estes dados podem ser usados para desenvolver ou melhorar sistemas, softwares ou a experiência do utilizador.

Ao clicar em "Eu concordo”, permitirá o uso de cookies, identificadores do dispositivo e web beacons mencionados ou outras tecnologias semelhantes. As configurações do navegador do seu dispositivo podem ser alteradas.

Para certos fins, podem ser invocados interesses legítimos ao invés de consentimento. Pode ler mais informação sobre este assunto na nossa Política de Privacidade e Cookies.